Tracking 19832 objects as of 24-Aug-2019
HD Live streaming from Space Station
objects crossing your sky now

THOR 2A

Track THOR 2A now!
THOR 2A is classified as:


NORAD ID: 24808
Int'l Code: 1997-025A
Perigee: 36,141.1 km
Apogee: 36,183.5 km
Inclination: 8.0 °
Period: 1,455.0 minutes
Semi major axis: 42533 km
RCS: 15.8489 m2 (large)
Launch date: May 20, 1997
Source: Norway (NOR)
Launch site: AIR FORCE EASTERN TEST RANGE (AFETR)

15 Ku-band; Nordic region, northern Europe.
aabbcc
Your satellite tracking list
Your tracking list is empty




NASA's NSSDC Master Catalog

Two Line Element Set (TLE):
1 24808U 97025A   19235.63928101  .00000031  00000-0  00000+0 0  9998
2 24808   8.0478  47.6534 0004990 280.6158  93.8970  0.98971328 81239
Source of the keplerian elements: AFSPC